Погода в Харгейсе

Сомали     9°33′52″N   44°03′47″E
темп.,
°C
ветер,
м/с
пор.,
м/с
влажн.,
%
обл.,
%
осадки,
мм/ч
давл.,
гПа
погр.,
м
9 мая, вс
вс900:00+22с4775100 0.0 1012169
03:00+21св2273100 0.0 101136
06:00+21ссв116883 0.0 101215
09:00+24в114498 0.0 1013505
12:00+27св124196 0.0 10111664
15:00+28ссв5431100 0.0 10092256
18:00+26с5646100 0.0 1010356
21:00+23ссв4560100 0.0 1012181
10 мая, пн
пн1000:00+22с2260100 0.0 101220
03:00+22ссз2251100 0.0 101013
06:00+21ссз1154100 0.0 101211
09:00+24зсз2238100 0.0 1013400
12:00+28с552489 0.0 10111201
15:00+28с5725100 0.0 10091513
18:00+25с4638100 0.0 1011162
21:00+24с3342100 0.0 101233
11 мая, вт
вт1100:00+23ссз2242100 0.0 101216
03:00+22ссз114296 0.0 101111
06:00+19юз466194 0.0 101398
09:00+25юз544991 0.0 1014752
12:00+28юз122860 0.0 10121893
15:00+29ссв4423100 0.0 10092419
18:00+26ссв6839100 0.0 1010278
21:00+24ссв3456100 0.0 101293
12 мая, ср
ср1200:00+22юз5866100 0.0 1013383
03:00+20юз91277100 0.0 1012438
06:00+20юз71178100 0.0 1013326
09:00+24юз995599 0.0 1013626
12:00+29ю1326100 0.0 10112237
15:00+29св5521100 0.0 10092336
18:00+27с5837100 0.0 1010203
21:00+24ссз3348100 0.0 101230
13 мая, чт
чт1300:00+24зсз2242100 0.0 101112
03:00+21юз6966100 0.0 1011196
06:00+20юз81272100 0.0 1012278
09:00+25юз7652100 0.0 1012562
12:00+29сз2532100 0.0 10092365
15:00+30с5528100 0.0 10072244
18:00+27ссв574294 0.0 1008170
21:00+25ссв235381 0.0 101037